Radiation Dose measured at exhaust stack monitor of Fukushima Daiichi Nuclear Power Station
Date,Time,Unit 5 6 shared exhaust cylinders,Wind Direction,Wind Velocity(m/s)
2021/08/24,00:00,3.8,west-northwest,1.5
2021/08/24,00:10,4.0,west,1.2
2021/08/24,00:20,3.8,west,2.0
2021/08/24,00:30,3.9,west-southwest,2.0
2021/08/24,00:40,3.9,west,2.0
2021/08/24,00:50,3.9,west,1.2
2021/08/24,01:00,3.9,southwest,1.4
2021/08/24,01:10,3.9,southwest,2.0
2021/08/24,01:20,3.9,southwest,1.1
2021/08/24,01:30,3.9,west,0.8
2021/08/24,01:40,3.8,west-northwest,0.8
2021/08/24,01:50,4.0,northwest,0.9
2021/08/24,02:00,3.9,northwest,1.5
2021/08/24,02:10,3.8,north-northwest,1.7
2021/08/24,02:20,4.0,north-northwest,2.5
2021/08/24,02:30,3.9,north-northwest,2.6
2021/08/24,02:40,3.7,north-northwest,3.4
2021/08/24,02:50,4.0,north-northwest,4.2
2021/08/24,03:00,3.9,north-northwest,3.9
2021/08/24,03:10,4.0,north-northwest,4.5
2021/08/24,03:20,3.9,north,4.0
2021/08/24,03:30,3.9,north,3.0
2021/08/24,03:40,3.8,north-northwest,3.1
2021/08/24,03:50,3.8,north-northwest,2.8
2021/08/24,04:00,3.8,north,2.5
2021/08/24,04:10,3.9,north,2.0
2021/08/24,04:20,3.8,north-northwest,2.0
2021/08/24,04:30,3.9,north-northwest,1.7
2021/08/24,04:40,4.1,north-northwest,1.7
2021/08/24,04:50,3.9,north-northwest,1.5
2021/08/24,05:00,3.8,north-northwest,1.5
2021/08/24,05:10,3.8,north,1.5
2021/08/24,05:20,3.7,north-northwest,2.5
2021/08/24,05:30,3.9,northwest,2.6
2021/08/24,05:40,3.9,north-northwest,3.6
2021/08/24,05:50,4.1,north-northwest,3.6
2021/08/24,06:00,3.8,north-northwest,3.0
2021/08/24,06:10,4.0,north-northwest,2.0
2021/08/24,06:20,3.7,north,2.6
2021/08/24,06:30,3.7,north,3.0
2021/08/24,06:40,4.0,north,3.3
2021/08/24,06:50,3.8,north,3.3
2021/08/24,07:00,3.9,north,2.8
2021/08/24,07:10,3.8,north,2.9
2021/08/24,07:20,3.8,north,2.5
2021/08/24,07:30,3.8,north-northwest,2.6
2021/08/24,07:40,3.8,north,1.7
2021/08/24,07:50,3.9,north-northwest,1.5
2021/08/24,08:00,4.0,north,2.0
2021/08/24,08:10,3.9,north,2.0
2021/08/24,08:20,3.7,north,1.5
2021/08/24,08:30,4.0,north,1.2
2021/08/24,08:40,3.9,north-northwest,1.5
2021/08/24,08:50,4.0,northeast,1.2
2021/08/24,09:00,3.9,north-northeast,1.2
2021/08/24,09:10,4.0,north,1.7
2021/08/24,09:20,3.7,north-northeast,1.2
2021/08/24,09:30,3.9,northeast,1.2
2021/08/24,09:40,3.7,northeast,1.4
2021/08/24,09:50,3.9,east-northeast,1.7
2021/08/24,10:00,3.8,northeast,1.7
2021/08/24,10:10,3.9,northeast,1.9
2021/08/24,10:20,3.8,east,2.6
2021/08/24,10:30,3.7,east,2.3
2021/08/24,10:40,3.9,northeast,1.7
2021/08/24,10:50,3.7,east-northeast,0.9
2021/08/24,11:00,4.0,east,1.4
2021/08/24,11:10,3.8,east,2.0
2021/08/24,11:20,3.8,east,1.9
2021/08/24,11:30,3.9,east-southeast,1.5
2021/08/24,11:40,3.8,east,2.3
2021/08/24,11:50,3.8,east,2.0
2021/08/24,12:00,4.0,east-northeast,1.9
2021/08/24,12:10,3.8,east-northeast,2.6
2021/08/24,12:20,3.9,east-northeast,2.3
2021/08/24,12:30,3.9,east-northeast,3.7
2021/08/24,12:40,3.9,east-northeast,3.4
2021/08/24,12:50,3.8,northeast,2.0
2021/08/24,13:00,3.8,east-northeast,1.5
2021/08/24,13:10,3.7,northeast,1.9
2021/08/24,13:20,3.8,northeast,2.0
2021/08/24,13:30,4.0,northeast,1.5
2021/08/24,13:40,3.8,east,1.9
2021/08/24,13:50,3.8,east-southeast,2.2
2021/08/24,14:00,3.8,east-southeast,2.2
2021/08/24,14:10,3.8,east-northeast,2.3
2021/08/24,14:20,3.7,east,2.3
2021/08/24,14:30,4.0,east-northeast,1.5
2021/08/24,14:40,3.7,east-northeast,2.2
2021/08/24,14:50,3.7,east-northeast,2.2
2021/08/24,15:00,3.8,east-northeast,2.6
2021/08/24,15:10,3.8,east-northeast,1.5
2021/08/24,15:20,4.0,northeast,1.5
2021/08/24,15:30,3.9,east-northeast,1.5
2021/08/24,15:40,3.8,northeast,1.5
2021/08/24,15:50,3.9,northeast,1.5
2021/08/24,16:00,3.9,northeast,2.0
2021/08/24,16:10,3.8,northeast,1.7
2021/08/24,16:20,3.8,north-northwest,0.9
2021/08/24,16:30,3.7,north-northwest,0.6
2021/08/24,16:40,3.9,-,CALM
2021/08/24,16:50,3.8,east-northeast,0.8
2021/08/24,17:00,3.8,east,2.0
2021/08/24,17:10,3.8,east-southeast,2.3
2021/08/24,17:20,3.9,east-southeast,2.5
2021/08/24,17:30,3.8,east-southeast,1.5
2021/08/24,17:40,3.9,-,CALM
2021/08/24,17:50,3.9,south-southeast,1.9
2021/08/24,18:00,3.9,southeast,2.3
2021/08/24,18:10,4.0,southeast,2.3
2021/08/24,18:20,3.9,southeast,1.5
2021/08/24,18:30,3.9,south-southeast,2.3
2021/08/24,18:40,3.9,south-southeast,1.5
2021/08/24,18:50,4.0,south-southeast,1.7
2021/08/24,19:00,3.9,south-southeast,1.7
2021/08/24,19:10,3.7,south,1.4
2021/08/24,19:20,3.8,south-southeast,1.9
2021/08/24,19:30,3.7,south-southeast,1.5
2021/08/24,19:40,3.8,south-southeast,1.1
2021/08/24,19:50,3.7,south-southwest,0.8
2021/08/24,20:00,4.0,south-southwest,0.8
2021/08/24,20:10,3.7,south-southwest,0.9
2021/08/24,20:20,3.9,south-southwest,0.6
2021/08/24,20:30,4.0,-,CALM
2021/08/24,20:40,3.9,-,CALM
2021/08/24,20:50,3.9,-,CALM
2021/08/24,21:00,3.8,-,CALM
2021/08/24,21:10,3.9,south,0.8
2021/08/24,21:20,3.9,northwest,1.7
2021/08/24,21:30,3.9,south-southeast,1.2
2021/08/24,21:40,4.0,south-southeast,0.9
2021/08/24,21:50,3.9,south-southeast,0.9
2021/08/24,22:00,3.9,-,CALM
2021/08/24,22:10,3.8,south-southeast,2.0
2021/08/24,22:20,3.7,south-southeast,2.0
2021/08/24,22:30,4.0,south-southeast,2.6
2021/08/24,22:40,3.8,south-southeast,2.6
2021/08/24,22:50,3.8,south-southeast,2.0
2021/08/24,23:00,3.8,south-southeast,1.2
2021/08/24,23:10,3.9,south,2.0
2021/08/24,23:20,3.8,south-southwest,1.1
2021/08/24,23:30,3.8,south-southwest,0.9
2021/08/24,23:40,3.9,south,0.9
2021/08/24,23:50,3.8,south-southwest,1.5
